When you browse on this site, cookies collect data to enhance your experience and personalize the content and advertising you see.
Visit our Privacy Policy to learn more. By continuing to use the site, you agree to this use of cookies and data.
  • In Sweden
  • List of Countries
  • For 7 days
  • Water Temperature
  • Weather Map
  • Weather Widgets
  • user-avatar
    Login

    Hourly Weather Aleksandriya

    Today, 22 January, Wednesday

    Time Temperature Precipitation Wind Pressure Humidity
    00:00 -2°C° 0.8 mm 6 mps 729 mmHg 98%
    01:00 -2°C° 0.5 mm 6 mps 729 mmHg 98%
    02:00 -2°C° 0.5 mm 6 mps 728 mmHg 98%
    03:00 -1°C° 0.5 mm 5 mps 728 mmHg 99%
    04:00 -2°C° 0.5 mm 6 mps 727 mmHg 98%
    05:00 -2°C° 0.5 mm 6 mps 727 mmHg 98%
    06:00 -2°C° 0.5 mm 7 mps 727 mmHg 98%
    07:00 -3°C° 0 mm 7 mps 728 mmHg 94%
    08:00 -3°C° 0 mm 7 mps 728 mmHg 89%
    09:00 -4°C° 0 mm 7 mps 729 mmHg 85%
    10:00 -4°C° 0 mm 6 mps 729 mmHg 86%
    11:00 -5°C° 0 mm 6 mps 729 mmHg 86%
    12:00 -5°C° 0 mm 6 mps 729 mmHg 87%
    13:00 -5°C° 0 mm 6 mps 729 mmHg 87%
    14:00 -5°C° 0 mm 5 mps 729 mmHg 88%
    15:00 -5°C° 0 mm 5 mps 729 mmHg 89%
    16:00 -5°C° 0 mm 5 mps 729 mmHg 90%
    17:00 -4°C° 0 mm 4 mps 729 mmHg 92%
    18:00 -5°C° 0 mm 4 mps 728 mmHg 94%
    19:00 -5°C° 0 mm 4 mps 728 mmHg 94%
    20:00 -5°C° 0 mm 4 mps 728 mmHg 94%
    21:00 -5°C° 0 mm 4 mps 728 mmHg 94%
    22:00 -6°C° 0 mm 3 mps 728 mmHg 95%
    23:00 -6°C° 0 mm 3 mps 728 mmHg 95%

    Tomorrow, 23 January, Thursday

    Time Temperature Precipitation Wind Pressure Humidity
    00:00 -7°C° 0 mm 3 mps 727 mmHg 96%
    01:00 -7°C° 0.1 mm 3 mps 727 mmHg 96%
    02:00 -6°C° 0.1 mm 3 mps 728 mmHg 96%
    03:00 -6°C° 0.1 mm 3 mps 728 mmHg 96%
    04:00 -6°C° 0.2 mm 3 mps 728 mmHg 95%
    05:00 -7°C° 0.2 mm 4 mps 728 mmHg 95%
    06:00 -8°C° 0.2 mm 4 mps 728 mmHg 94%
    07:00 -8°C° 0 mm 4 mps 728 mmHg 94%
    08:00 -9°C° 0 mm 4 mps 729 mmHg 94%
    09:00 -9°C° 0 mm 4 mps 730 mmHg 93%
    10:00 -9°C° 0 mm 4 mps 730 mmHg 93%
    11:00 -8°C° 0 mm 5 mps 730 mmHg 92%
    12:00 -7°C° 0 mm 5 mps 731 mmHg 91%
    13:00 -8°C° 0.1 mm 5 mps 731 mmHg 90%
    14:00 -8°C° 0.1 mm 5 mps 732 mmHg 90%
    15:00 -8°C° 0.1 mm 5 mps 732 mmHg 89%
    16:00 -10°C° 0.1 mm 5 mps 733 mmHg 89%
    17:00 -10°C° 0.1 mm 4 mps 734 mmHg 89%
    18:00 -11°C° 0.1 mm 4 mps 734 mmHg 90%
    19:00 -11°C° 0 mm 4 mps 735 mmHg 91%
    20:00 -12°C° 0 mm 4 mps 736 mmHg 92%
    21:00 -12°C° 0 mm 4 mps 736 mmHg 93%
    22:00 -12°C° 0 mm 4 mps 737 mmHg 93%
    23:00 -12°C° 0 mm 3 mps 737 mmHg 94%

    Day after tomorrow, 24 January, Friday

    Time Temperature Precipitation Wind Pressure Humidity
    00:00 -13°C° 0 mm 3 mps 738 mmHg 94%
    01:00 -13°C° 0 mm 3 mps 738 mmHg 94%
    02:00 -13°C° 0 mm 3 mps 739 mmHg 94%
    03:00 -13°C° 0 mm 3 mps 739 mmHg 93%
    04:00 -14°C° 0 mm 3 mps 740 mmHg 94%
    05:00 -15°C° 0 mm 3 mps 740 mmHg 94%
    06:00 -16°C° 0 mm 3 mps 740 mmHg 95%
    07:00 -16°C° 0 mm 3 mps 741 mmHg 95%
    08:00 -16°C° 0 mm 3 mps 741 mmHg 95%
    09:00 -16°C° 0 mm 3 mps 742 mmHg 95%
    10:00 -15°C° 0 mm 3 mps 742 mmHg 94%
    11:00 -14°C° 0 mm 4 mps 742 mmHg 92%
    12:00 -12°C° 0 mm 4 mps 741 mmHg 91%
    13:00 -12°C° 0 mm 4 mps 741 mmHg 89%
    14:00 -12°C° 0 mm 4 mps 741 mmHg 88%
    15:00 -13°C° 0 mm 5 mps 741 mmHg 86%
    16:00 -13°C° 0 mm 5 mps 740 mmHg 87%
    17:00 -14°C° 0 mm 6 mps 740 mmHg 88%
    18:00 -15°C° 0 mm 6 mps 739 mmHg 89%
    19:00 -14°C° 0.2 mm 6 mps 739 mmHg 91%
    20:00 -14°C° 0.2 mm 7 mps 738 mmHg 92%
    21:00 -13°C° 0.2 mm 7 mps 738 mmHg 93%
    22:00 -12°C° 0.4 mm 7 mps 737 mmHg 94%
    23:00 -11°C° 0.4 mm 7 mps 736 mmHg 94%

    25 January, Saturday

    Time Temperature Precipitation Wind Pressure Humidity
    00:00 -9°C° 0.4 mm 7 mps 735 mmHg 94%
    01:00 -8°C° 0.4 mm 7 mps 734 mmHg 94%
    02:00 -7°C° 0.4 mm 7 mps 734 mmHg 95%
    03:00 -6°C° 0.4 mm 6 mps 733 mmHg 95%
    04:00 -5°C° 0.1 mm 6 mps 733 mmHg 94%
    05:00 -4°C° 0.1 mm 6 mps 733 mmHg 92%
    06:00 -2°C° 0.1 mm 5 mps 733 mmHg 91%
    07:00 -4°C° 0 mm 5 mps 733 mmHg 92%
    08:00 -4°C° 0 mm 4 mps 734 mmHg 93%
    09:00 -5°C° 0 mm 3 mps 734 mmHg 94%
    10:00 -4°C° 0 mm 4 mps 734 mmHg 94%
    11:00 -4°C° 0 mm 4 mps 734 mmHg 94%
    12:00 -3°C° 0 mm 4 mps 734 mmHg 94%
    13:00 -2°C° 0.1 mm 4 mps 733 mmHg 95%
    14:00 -2°C° 0.1 mm 4 mps 732 mmHg 97%
    15:00 -1°C° 0.1 mm 5 mps 732 mmHg 98%
    16:00 -1°C° 0.6 mm 5 mps 731 mmHg 98%
    17:00 -1°C° 0.6 mm 5 mps 731 mmHg 98%
    18:00 -2°C° 0.6 mm 6 mps 730 mmHg 98%
    19:00 -2°C° 0.4 mm 6 mps 730 mmHg 98%
    20:00 -3°C° 0.4 mm 6 mps 729 mmHg 97%
    21:00 -3°C° 0.4 mm 6 mps 729 mmHg 97%
    22:00 -3°C° 0.7 mm 6 mps 729 mmHg 96%
    23:00 -3°C° 0.7 mm 6 mps 728 mmHg 94%

    26 January, Sunday

    Time Temperature Precipitation Wind Pressure Humidity
    00:00 -3°C° 0.7 mm 6 mps 728 mmHg 92%
    01:00 -4°C° 0.2 mm 7 mps 728 mmHg 91%
    02:00 -4°C° 0.2 mm 7 mps 728 mmHg 90%
    03:00 -6°C° 0.2 mm 7 mps 728 mmHg 89%
    04:00 -6°C° 0.3 mm 7 mps 729 mmHg 89%
    05:00 -7°C° 0.3 mm 7 mps 729 mmHg 88%
    06:00 -7°C° 0.3 mm 7 mps 730 mmHg 87%
    07:00 -8°C° 0 mm 7 mps 731 mmHg 87%
    08:00 -8°C° 0 mm 7 mps 732 mmHg 88%
    09:00 -9°C° 0 mm 7 mps 733 mmHg 88%
    10:00 -8°C° 0 mm 8 mps 733 mmHg 88%
    11:00 -8°C° 0 mm 8 mps 734 mmHg 88%
    12:00 -8°C° 0 mm 8 mps 735 mmHg 88%
    13:00 -8°C° 0.1 mm 8 mps 735 mmHg 87%
    14:00 -8°C° 0.1 mm 8 mps 736 mmHg 86%
    15:00 -10°C° 0.1 mm 8 mps 737 mmHg 86%
    16:00 -11°C° 0.1 mm 8 mps 738 mmHg 86%
    17:00 -12°C° 0.1 mm 7 mps 739 mmHg 87%
    18:00 -13°C° 0.1 mm 7 mps 740 mmHg 87%
    19:00 -13°C° 0 mm 7 mps 741 mmHg 88%
    20:00 -14°C° 0 mm 6 mps 742 mmHg 89%
    21:00 -14°C° 0 mm 6 mps 743 mmHg 89%
    22:00 -14°C° 0 mm 5 mps 744 mmHg 90%
    23:00 -15°C° 0 mm 5 mps 745 mmHg 90%

    27 January, Monday

    Time Temperature Precipitation Wind Pressure Humidity
    00:00 -15°C° 0 mm 4 mps 746 mmHg 91%
    01:00 -16°C° 0 mm 4 mps 746 mmHg 92%
    02:00 -16°C° 0 mm 4 mps 747 mmHg 93%
    03:00 -17°C° 0 mm 4 mps 748 mmHg 94%
    04:00 -16°C° 0 mm 3 mps 748 mmHg 94%
    05:00 -16°C° 0 mm 3 mps 749 mmHg 94%
    06:00 -16°C° 0 mm 3 mps 749 mmHg 95%
    07:00 -15°C° 0 mm 2 mps 750 mmHg 95%
    08:00 -16°C° 0 mm 2 mps 750 mmHg 95%
    09:00 -14°C° 0 mm 1 mps 750 mmHg 95%
    10:00 -14°C° 0 mm 2 mps 751 mmHg 93%
    11:00 -12°C° 0 mm 2 mps 751 mmHg 92%
    12:00 -12°C° 0 mm 3 mps 751 mmHg 91%
    13:00 -10°C° 0 mm 3 mps 751 mmHg 90%
    14:00 -11°C° 0 mm 4 mps 750 mmHg 89%
    15:00 -10°C° 0 mm 4 mps 750 mmHg 89%
    16:00 -10°C° 0 mm 5 mps 750 mmHg 89%
    17:00 -10°C° 0 mm 5 mps 749 mmHg 89%
    18:00 -10°C° 0 mm 6 mps 749 mmHg 89%
    19:00 -9°C° 0 mm 6 mps 749 mmHg 89%
    20:00 -9°C° 0 mm 6 mps 748 mmHg 88%
    21:00 -9°C° 0 mm 7 mps 748 mmHg 88%
    22:00 -9°C° 0 mm 7 mps 747 mmHg 88%
    23:00 -9°C° 0 mm 7 mps 747 mmHg 88%
    Show more